Date String (YYYY-MM-DD hh:mm:ss) UTC,Instrument flags,absolute air pressure of the measurement (hPa),sample flow rate (lpm),inlet stack bypass flow (lpm),air temperature of the measurement (°C),ambient temperature measured by the external sensor (°C),aerosol sample conditioner tube jacket temperature (°C),OPC LED temperature (°C),internal box temperature (°C),relative humidity of the measurement (%),span deviation,mass concentration of particles derived from Lorenz-Mie calculation of OPC scattering (μg/m³),mass concentration of particles derived from Lorenz-Mie calculation of OPC scattering (μg/m³),mass concentration of particles derived from Lorenz-Mie calculation of OPC scattering (μg/m³)
DateTimeUTC,F1_M11,P_M11,Q1_M11,Q2_M11,T1_M11,T2_M11,T3_M11,T4_M11,T5_M11,U1_M11,ZSPAN_M11,X0_M11,X2_M11,X1_M11
2023-12-05 04:00:00,SystemResetWarning,0834.2,4.99,000.00,022.6,021.7,000.0,030.9,023.8,18.4,0000.0,0007.42,0001.65,0001.05
2023-12-05 04:01:00,SystemResetWarning,0834.1,5.00,000.00,022.5,021.7,000.0,030.9,023.8,18.5,0000.0,0006.89,0001.66,0001.04
2023-12-05 04:02:00,SystemResetWarning,0834.2,5.01,000.00,022.5,021.6,000.0,030.9,023.8,18.7,0000.0,0007.27,0001.67,0001.05
2023-12-05 04:03:00,SystemResetWarning,0834.1,5.00,000.00,022.5,021.6,000.0,030.9,023.8,18.7,0000.0,0006.62,0001.65,0001.05
2023-12-05 04:04:00,SystemResetWarning,0834.1,5.00,000.00,022.5,021.6,000.0,030.9,023.8,18.8,0000.0,0005.59,0001.62,0001.04
2023-12-05 04:05:00,SystemResetWarning,0834.2,5.00,000.00,022.5,021.6,000.0,030.9,023.7,18.8,0000.0,0005.36,0001.60,0001.04
2023-12-05 04:06:00,SystemResetWarning,0834.2,5.00,000.00,022.5,021.6,000.0,030.9,023.8,18.7,0000.0,0006.26,0001.58,0001.05
2023-12-05 04:07:00,SystemResetWarning,0834.2,5.00,000.00,022.5,021.6,000.0,030.9,023.8,18.8,0000.0,0006.48,0001.60,0001.05
2023-12-05 04:08:00,SystemResetWarning,0834.2,5.00,000.00,022.5,021.6,000.0,030.9,023.7,18.7,0000.0,0007.39,0001.62,0001.05
2023-12-05 04:09:00,SystemResetWarning,0834.1,4.99,000.00,022.4,021.5,000.0,030.9,023.7,18.7,0000.0,0007.36,0001.71,0001.05
2023-12-05 04:10:00,SystemResetWarning,0834.1,4.99,000.00,022.4,021.5,000.0,030.8,023.7,18.6,0000.0,0007.61,0001.72,0001.05
2023-12-05 04:11:00,SystemResetWarning,0834.0,4.99,000.00,022.5,021.6,000.0,030.8,023.7,18.6,0000.0,0007.98,0001.68,0001.05
2023-12-05 04:12:00,SystemResetWarning,0834.0,5.00,000.00,022.4,021.5,000.0,030.8,023.8,18.6,0000.0,0007.94,0001.66,0001.05
2023-12-05 04:13:00,SystemResetWarning,0833.9,5.01,000.00,022.5,021.6,000.0,030.8,023.8,18.5,0000.0,0007.35,0001.63,0001.04
2023-12-05 04:14:00,SystemResetWarning,0833.9,5.01,000.00,022.5,021.6,000.0,030.8,023.8,18.5,0000.0,0007.29,0001.64,0001.05
2023-12-05 04:15:00,SystemResetWarning,0834.0,5.00,000.00,022.5,021.6,000.0,030.8,023.7,18.6,0000.0,0007.33,0001.65,0001.05
2023-12-05 04:16:00,SystemResetWarning,0834.0,5.01,000.00,022.4,021.6,000.0,030.8,023.7,18.7,0000.0,0007.39,0001.70,0001.04
2023-12-05 04:17:00,SystemResetWarning,0834.0,5.00,000.00,022.4,021.6,000.0,030.8,023.7,18.7,0000.0,0006.22,0001.75,0001.04
2023-12-05 04:18:00,SystemResetWarning,0834.0,5.00,000.00,022.4,021.6,000.0,030.8,023.7,18.7,0000.0,0005.75,0001.74,0001.04
2023-12-05 04:19:00,SystemResetWarning,0834.0,5.00,000.00,022.4,021.6,000.0,030.8,023.7,18.6,0000.0,0006.11,0001.72,0001.04
2023-12-05 04:20:00,SystemResetWarning,0834.0,4.99,000.00,022.4,021.6,000.0,030.8,023.7,18.6,0000.0,0006.03,0001.63,0001.03
2023-12-05 04:21:00,SystemResetWarning,0834.0,4.99,000.00,022.4,021.5,000.0,030.8,023.7,18.6,0000.0,0005.66,0001.64,0001.02
2023-12-05 04:22:00,SystemResetWarning,0834.0,5.01,000.00,022.4,021.5,000.0,030.8,023.7,18.6,0000.0,0004.80,0001.64,0001.03
2023-12-05 04:23:00,SystemResetWarning,0834.0,5.00,000.00,022.4,021.5,000.0,030.8,023.7,18.6,0000.0,0004.82,0001.63,0001.02
2023-12-05 04:24:00,SystemResetWarning,0834.0,5.01,000.00,022.4,021.6,000.0,030.8,023.7,18.7,0000.0,0005.37,0001.67,0001.03
2023-12-05 04:25:00,SystemResetWarning,0834.0,5.00,000.00,022.4,021.6,000.0,030.8,023.7,18.7,0000.0,0006.13,0001.66,0001.03
2023-12-05 04:26:00,SystemResetWarning,0834.0,4.99,000.00,022.4,021.6,000.0,030.8,023.7,18.6,0000.0,0006.20,0001.68,0001.04
2023-12-05 04:27:00,SystemResetWarning,0833.9,5.00,000.00,022.4,021.6,000.0,030.8,023.7,18.6,0000.0,0006.26,0001.68,0001.04
2023-12-05 04:28:00,SystemResetWarning,0833.9,4.99,000.00,022.4,021.6,000.0,030.8,023.7,18.6,0000.0,0007.30,0001.68,0001.05
2023-12-05 04:29:00,SystemResetWarning,0833.9,4.99,000.00,022.4,021.6,000.0,030.8,023.7,18.6,0000.0,0007.34,0001.63,0001.04
2023-12-05 04:30:00,SystemResetWarning,0833.9,5.00,000.00,022.4,021.6,000.0,030.8,023.7,18.5,0000.0,0007.21,0001.62,0001.04
2023-12-05 04:31:00,SystemResetWarning,0833.9,5.00,000.00,022.4,021.6,000.0,030.8,023.7,18.5,0000.0,0005.99,0001.60,0001.05
2023-12-05 04:32:00,SystemResetWarning,0833.9,5.01,000.00,022.4,021.6,000.0,030.8,023.7,18.5,0000.0,0006.58,0001.58,0001.05
2023-12-05 04:33:00,SystemResetWarning,0833.9,5.00,000.00,022.4,021.6,000.0,030.8,023.7,18.5,0000.0,0006.53,0001.55,0001.06
2023-12-05 04:34:00,SystemResetWarning,0834.0,5.01,000.00,022.5,021.6,000.0,030.8,023.7,18.5,0000.0,0006.56,0001.56,0001.06
2023-12-05 04:35:00,SystemResetWarning,0834.0,5.00,000.00,022.5,021.6,000.0,030.8,023.7,18.6,0000.0,0007.62,0001.55,0001.06
2023-12-05 04:36:00,SystemResetWarning,0834.1,5.00,000.00,022.5,021.6,000.0,030.8,023.8,18.6,0000.0,0006.81,0001.52,0001.06
2023-12-05 04:37:00,SystemResetWarning,0834.0,5.01,000.00,022.5,021.6,000.0,030.8,023.7,18.5,0000.0,0006.79,0001.54,0001.06
2023-12-05 04:38:00,SystemResetWarning,0833.9,5.00,000.00,022.5,021.6,000.0,030.8,023.7,18.5,0000.0,0006.98,0001.56,0001.05
2023-12-05 04:39:00,SystemResetWarning,0833.9,5.00,000.00,022.5,021.6,000.0,030.8,023.8,18.5,0000.0,0006.31,0001.54,0001.05
2023-12-05 04:40:00,SystemResetWarning,0833.9,5.00,000.00,022.5,021.6,000.0,030.8,023.8,18.5,0000.0,0005.83,0001.60,0001.07
2023-12-05 04:41:00,SystemResetWarning,0833.9,5.00,000.00,022.5,021.6,000.0,030.8,023.8,18.5,0000.0,0005.81,0001.58,0001.08
2023-12-05 04:42:00,SystemResetWarning,0833.9,5.00,000.00,022.5,021.6,000.0,030.8,023.8,18.5,0000.0,0006.03,0001.59,0001.08
2023-12-05 04:43:00,SystemResetWarning,0833.9,5.00,000.00,022.5,021.6,000.0,030.8,023.8,18.5,0000.0,0005.53,0001.65,0001.10
2023-12-05 04:44:00,SystemResetWarning,0834.0,5.00,000.00,022.5,021.6,000.0,030.8,023.7,18.4,0000.0,0005.94,0001.70,0001.10
2023-12-05 04:45:00,SystemResetWarning,0833.9,4.99,000.00,022.5,021.6,000.0,030.8,023.8,18.4,0000.0,0006.00,0001.67,0001.10
2023-12-05 04:46:00,SystemResetWarning,0833.8,5.00,000.00,022.5,021.6,000.0,030.8,023.7,18.5,0000.0,0005.46,0001.71,0001.11
2023-12-05 04:47:00,SystemResetWarning,0833.8,5.00,000.00,022.5,021.6,000.0,030.8,023.8,18.5,0000.0,0004.85,0001.71,0001.12
2023-12-05 04:48:00,SystemResetWarning,0833.9,5.00,000.00,022.5,021.6,000.0,030.8,023.8,18.5,0000.0,0004.78,0001.69,0001.11
2023-12-05 04:49:00,SystemResetWarning,0833.8,5.00,000.00,022.5,021.6,000.0,030.8,023.8,18.5,0000.0,0004.50,0001.68,0001.13
2023-12-05 04:50:00,SystemResetWarning,0833.9,5.00,000.00,022.5,021.6,000.0,030.8,023.8,18.5,0000.0,0004.41,0001.67,0001.14
2023-12-05 04:51:00,SystemResetWarning,0833.9,5.00,000.00,022.5,021.6,000.0,030.8,023.8,18.6,0000.0,0004.26,0001.63,0001.14
2023-12-05 04:52:00,SystemResetWarning,0833.9,5.00,000.00,022.5,021.6,000.0,030.8,023.8,18.6,0000.0,0004.34,0001.66,0001.13
2023-12-05 04:53:00,SystemResetWarning,0834.0,5.00,000.00,022.5,021.6,000.0,030.8,023.8,18.6,0000.0,0004.82,0001.66,0001.12
2023-12-05 04:54:00,SystemResetWarning,0834.0,5.00,000.00,022.5,021.6,000.0,030.8,023.7,18.5,0000.0,0005.13,0001.64,0001.12
2023-12-05 04:55:00,SystemResetWarning,0834.0,5.00,000.00,022.5,021.6,000.0,030.8,023.8,18.5,0000.0,0004.48,0001.57,0001.12
2023-12-05 04:56:00,SystemResetWarning,0834.0,5.00,000.00,022.5,021.6,000.0,030.8,023.8,18.5,0000.0,0004.43,0001.58,0001.13
2023-12-05 04:57:00,SystemResetWarning,0834.0,5.00,000.00,022.5,021.6,000.0,030.8,023.7,18.5,0000.0,0005.29,0001.59,0001.13
2023-12-05 04:58:00,SystemResetWarning,0834.1,5.01,000.00,022.5,021.6,000.0,030.8,023.8,18.5,0000.0,0005.73,0001.63,0001.13
2023-12-05 04:59:00,SystemResetWarning,0834.0,5.00,000.00,022.5,021.6,000.0,030.8,023.7,18.5,0000.0,0005.87,0001.70,0001.14
